Weather History for KHTS - March, 2013

Change the Weather History Date:

Monday, March 18, 2013

  Actual Average Record
Temperature  
Mean Temperature 45 °F 47 °F  
Max Temperature 54 °F 57 °F 85 °F (1908)
Min Temperature 35 °F 36 °F 13 °F (1941)
Degree Days  
Heating Degree Days 20 19  
Month to date heating degree days 437 386  
Since 1 July heating degree days 3852 3887  
Cooling Degree Days 0 0  
Month to date cooling degree days 0 0  
Year to date cooling degree days 0 0  
Moisture  
Dew Point 42 °F    
Average Humidity 92    
Maximum Humidity 100    
Minimum Humidity 83    
Precipitation  
Precipitation 1.10 in 0.13 in 1.37 in (1898)
Month to date precipitation 2.89 2.26  
Year to date precipitation 8.57 8.30  
Snow  
Snow 0.00 in - - ()
Month to date snowfall T  
Since 1 September snowfall 11.9  
Snow Depth 0.00 in    
Sea Level Pressure  
Sea Level Pressure 29.79 in    
Wind  
Wind Speed 8 mph (SSE)    
Max Wind Speed 17 mph    
Max Gust Speed 28 mph    
Visibility 6 miles    
Events Fog , Rain , Thunderstorm    
T = Trace of Precipitation, MM = Missing Value Source: NWS Daily Summary

Daily Weather History Graph

Daily Weather History Graph

Search for Another Location

Airport or City:

Trip Planner

Search our weather history database for the weather conditions in past years. The results will help you decide how hot, cold, wet, or windy it might be!

Date:

Astronomy

Mar. 18, 2013 Rise Set
Actual Time 7:36 AM EDT 7:40 PM EDT
Civil Twilight 7:10 AM EDT 8:06 PM EDT
Nautical Twilight 6:39 AM EDT 8:37 PM EDT
Astronomical Twilight 6:08 AM EDT 9:08 PM EDT
Moon 11:39 AM EDT (3/18) 1:34 AM EDT (3/18)
Length of Visible Light 12h 56m
Length of Day
12h 04m
Waxing Crescent, 40% of the Moon is Illuminated
Mar 18
Waxing Crescent
Mar 19
First Quarter
Mar 27
Full
Apr 3
Last Quarter
Apr 10
New

Hourly Weather History & Observations

Time (EDT) Temp. Windchill Dew Point Humidity Pressure Visibility Wind Dir Wind Speed Gust Speed Precip Events Conditions
12:51 AM 35.1 °F 29.3 °F 33.1 °F 92% 29.99 in 8.0 mi NE 6.9 mph - 0.04 in Rain Light Rain
1:51 AM 35.1 °F 28.6 °F 33.1 °F 92% 29.96 in 4.0 mi ENE 8.1 mph - 0.07 in Rain Light Rain
2:51 AM 35.1 °F 30.1 °F 34.0 °F 96% 29.95 in 10.0 mi ENE 5.8 mph - 0.01 in   Overcast
3:51 AM 36.0 °F 30.3 °F 34.0 °F 93% 29.92 in 8.0 mi ENE 6.9 mph - N/A   Overcast
4:39 AM 35.6 °F 29.2 °F 33.8 °F 93% 29.86 in 1.8 mi ENE 8.1 mph - N/A   Overcast
4:51 AM 36.0 °F 29.6 °F 34.0 °F 93% 29.87 in 0.8 mi East 8.1 mph - N/A   Mist
5:07 AM 35.6 °F 28.6 °F 33.8 °F 93% 29.83 in 0.2 mi East 9.2 mph - N/A Fog Fog
5:15 AM 35.6 °F 29.2 °F 35.6 °F 100% 29.82 in 0.5 mi East 8.1 mph - N/A Fog Fog
5:32 AM 35.6 °F 31.7 °F 35.6 °F 100% 29.83 in 2.0 mi East 4.6 mph - N/A   Overcast
5:42 AM 35.6 °F 32.8 °F 35.6 °F 100% 29.83 in 3.0 mi East 3.5 mph - N/A   Overcast
5:51 AM 36.0 °F 33.3 °F 35.1 °F 97% 29.84 in 5.0 mi East 3.5 mph - N/A   Mostly Cloudy
6:04 AM 35.6 °F - 35.6 °F 100% 29.82 in 5.0 mi Calm Calm - N/A   Scattered Clouds
6:51 AM 36.0 °F 33.3 °F 35.1 °F 97% 29.81 in 4.0 mi East 3.5 mph - N/A   Overcast
7:51 AM 41.0 °F 35.8 °F 37.0 °F 86% 29.77 in 10.0 mi ESE 8.1 mph - N/A   Overcast
8:06 AM 42.8 °F 37.5 °F 37.4 °F 81% 29.75 in 10.0 mi SE 9.2 mph - N/A Thunderstorm Thunderstorm
8:51 AM 46.0 °F 44.8 °F 39.9 °F 79% 29.76 in 10.0 mi SE 3.5 mph - 0.01 in Rain , Thunderstorm Light Thunderstorms and Rain
9:00 AM 44.6 °F 39.2 °F 39.2 °F 81% 29.81 in 1.5 mi WNW 10.4 mph 17.3 mph 0.00 in Rain , Thunderstorm Light Thunderstorms and Rain
9:51 AM 39.9 °F - 37.9 °F 93% 29.86 in 1.5 mi Calm Calm - 0.20 in Rain Heavy Rain
10:41 AM 42.8 °F 38.6 °F 41.0 °F 93% 29.81 in 5.0 mi SSE 6.9 mph - 0.13 in Rain Light Rain
10:51 AM 44.1 °F 40.1 °F 42.1 °F 93% 29.82 in 4.0 mi SSE 6.9 mph - 0.15 in Rain Rain
11:51 AM 46.0 °F 41.0 °F 43.0 °F 89% 29.78 in 6.0 mi SE 10.4 mph 17.3 mph 0.13 in Rain Light Rain
12:51 PM 48.0 °F - 46.0 °F 93% 29.80 in 4.0 mi South 10.4 mph - 0.10 in Rain Rain
1:20 PM 48.2 °F - 46.4 °F 93% 29.80 in 2.0 mi South 11.5 mph - 0.12 in Rain Heavy Rain
1:51 PM 48.9 °F - 46.9 °F 93% 29.81 in 1.5 mi South 9.2 mph - 0.22 in Rain Rain
2:11 PM 50.0 °F - 48.2 °F 94% 29.79 in 3.0 mi South 8.1 mph - 0.07 in Rain Rain
2:51 PM 51.1 °F - 48.0 °F 89% 29.70 in 5.0 mi SE 16.1 mph 23.0 mph 0.13 in Rain Light Rain
3:34 PM 51.8 °F - 48.2 °F 88% 29.67 in 10.0 mi SSE 10.4 mph 27.6 mph 0.01 in   Overcast
3:51 PM 53.1 °F - 48.9 °F 86% 29.68 in 10.0 mi South 9.2 mph 16.1 mph 0.01 in   Scattered Clouds
4:51 PM 54.0 °F - 48.9 °F 83% 29.69 in 10.0 mi South 9.2 mph - N/A   Partly Cloudy
5:51 PM 54.0 °F - 48.0 °F 80% 29.69 in 10.0 mi SSE 9.2 mph 18.4 mph N/A   Mostly Cloudy
6:24 PM 53.6 °F - 48.2 °F 82% 29.69 in 10.0 mi SSW 11.5 mph 19.6 mph N/A   Overcast
6:51 PM 53.1 °F - 48.9 °F 86% 29.70 in 10.0 mi South 11.5 mph - N/A   Overcast
7:51 PM 54.0 °F - 48.9 °F 83% 29.71 in 10.0 mi SSW 6.9 mph - N/A   Mostly Cloudy
8:51 PM 54.0 °F - 48.9 °F 83% 29.71 in 10.0 mi SSW 6.9 mph - N/A   Mostly Cloudy
9:00 PM 53.6 °F - 48.2 °F 82% 29.71 in 10.0 mi SSW 8.1 mph - N/A   Overcast
9:51 PM 54.0 °F - 48.9 °F 83% 29.72 in 10.0 mi SSW 8.1 mph - N/A   Overcast
10:16 PM 53.6 °F - 51.8 °F 94% 29.73 in 3.0 mi West 9.2 mph 18.4 mph 0.02 in Rain Rain
10:51 PM 52.0 °F - 48.0 °F 86% 29.75 in 10.0 mi West 10.4 mph - 0.04 in Rain Light Rain
11:41 PM 51.8 °F - 46.4 °F 82% 29.76 in 10.0 mi West 8.1 mph 18.4 mph N/A   Overcast
11:51 PM 51.1 °F - 46.0 °F 83% 29.77 in 10.0 mi West 8.1 mph - 0.00 in   Overcast